[[{"header":{"parameterUnit":"m.s-1","parameterCategory":1,"la1":30.2992,"la2":30.254,"lo1":-89.0895,"lo2":-89.0443,"dy":0.0025,"dx":0.0025,"nx":19,"ny":19,"refTime":"2026-03-19T03:00:00:Z","depth":0,"parameterNumber":2,"parameterNumberName":"U-component_of_WINDS"},"data":[0,0,0,2.9184,2.9187,2.9317,2.9318,2.9479,2.9481,0,0,0,0,0,0,0,0,0,0,0,2.9146,2.9147,2.9184,2.9187,2.9317,2.9318,2.9479,2.9481,0,0,0,0,0,0,0,0,0,0,0,2.9145,2.9146,2.9148,2.9188,2.9317,2.9318,2.9479,2.9381,0,0,0,0,0,0,0,0,0,0,2.9255,2.9221,2.9146,2.9148,2.9188,2.9317,2.9318,2.9377,2.9388,2.9419,0,2.945,0,2.9468,2.9492,2.9492,0,0,0,2.9186,2.9212,2.9247,2.9148,2.919,2.9317,2.9258,2.9383,2.9395,2.9433,2.9452,2.9458,2.9471,2.9493,2.9493,2.9681,2.9682,0,0,2.9179,2.9169,2.9239,2.9255,2.9238,2.9254,2.9262,2.939,2.9409,2.9453,2.9462,2.9473,2.9494,2.9495,2.968,2.9681,0,0,0,2.9159,2.9164,2.9196,2.9248,2.9272,2.9258,2.9267,2.9404,2.9415,2.9464,2.9475,2.9495,2.9497,2.9679,2.968,2.9713,0,0,0,2.9155,2.9152,2.9193,2.9187,2.927,2.934,2.9278,2.9406,2.9421,2.9474,2.9495,2.9498,2.9678,2.968,2.971,2.973,0,0,0,2.9137,2.915,2.9169,2.9187,2.9243,2.9339,2.9357,2.941,2.9428,2.9492,2.9499,2.9678,2.9679,2.9708,2.9726,2.9773,0,0,0,2.9114,2.9198,2.9169,2.9266,2.9241,2.936,2.9357,2.9445,2.9504,2.9495,2.9678,2.968,2.9707,2.9723,2.9771,2.981,2.9827,0,0,2.9213,2.9209,2.9267,2.9245,2.9366,2.934,2.9465,2.9529,2.9544,2.9633,2.9638,2.9711,2.9725,2.9773,2.9927,2.994,0,0,0,2.9295,2.9336,2.937,2.9426,2.9478,2.9522,2.9568,2.9591,2.9667,2.9589,2.9744,2.9752,2.978,2.9799,2.981,2.9833,2.969,2.9689,2.9689,2.9418,2.9434,2.9528,2.9558,2.9613,2.9658,2.9702,2.974,2.9741,2.9776,2.9802,2.9894,2.9916,2.9925,2.9948,2.9827,2.9827,2.9827,2.9827,2.9562,2.962,2.9617,2.9708,2.9722,2.9797,2.9843,2.984,2.9909,2.9877,2.9902,2.9863,2.9938,2.996,2.983,2.983,2.9829,2.9829,2.9829,2.9642,2.9672,2.97,2.978,2.9839,2.9866,2.9933,2.9944,2.9955,2.998,3.0006,3.0005,3.0003,2.9992,2.9992,2.9993,2.9993,2.9993,2.9993,2.9714,2.9743,2.9799,2.9858,2.9893,2.9941,2.9986,3.002,3.006,3.0062,3.0063,3.0056,2.9945,2.9914,2.9998,2.9997,2.9997,2.9996,2.9996,2.9849,2.9819,2.9905,2.9941,3.0008,3.0064,3.0078,3.0146,3.0175,3.0207,3.0195,3.0112,3.0108,3.0099,3.0074,3.0194,3.0194,3.0194,3.0194,2.9914,2.9913,3.0001,3.0056,3.0112,3.0131,3.0223,3.0257,3.0287,3.0305,3.029,3.0258,3.0249,3.025,3.0238,3.0214,3.0368,3.0368,3.0368,2.9995,3.0,3.0078,3.0108,3.0161,3.0205,3.029,3.035,3.0379,3.0375,3.0318,3.0311,3.026,3.0244,3.0237,3.0218,3.0175,0,0]},{"header":{"parameterUnit":"m.s-1","parameterCategory":1,"la1":30.2992,"la2":30.254,"lo1":-89.0895,"lo2":-89.0443,"dy":0.0025,"dx":0.0025,"nx":19,"ny":19,"refTime":"2026-03-19T03:00:00:Z","depth":0,"parameterNumber":3,"parameterNumberName":"V-component_of_WINDS"},"data":[0,0,0,0.4303,0.4303,0.4286,0.4286,0.4273,0.4273,0,0,0,0,0,0,0,0,0,0,0,0.4316,0.4316,0.4303,0.4303,0.4286,0.4286,0.4273,0.4273,0,0,0,0,0,0,0,0,0,0,0,0.4316,0.4316,0.4316,0.4303,0.4286,0.4286,0.4273,0.4282,0,0,0,0,0,0,0,0,0,0,0.4297,0.4316,0.4316,0.4316,0.4303,0.4286,0.4286,0.4283,0.4282,0.4285,0,0.4291,0,0.4282,0.4272,0.4272,0,0,0,0.4298,0.4317,0.4306,0.4316,0.4303,0.4286,0.4292,0.4282,0.4281,0.4284,0.4291,0.429,0.4281,0.4272,0.4272,0.4311,0.4311,0,0,0.4299,0.4316,0.4307,0.4305,0.431,0.4293,0.4292,0.4281,0.4289,0.4291,0.4289,0.4281,0.4272,0.4272,0.431,0.4311,0,0,0,0.4305,0.4317,0.4306,0.4306,0.4302,0.4292,0.4291,0.429,0.4285,0.4289,0.4281,0.4272,0.4272,0.431,0.431,0.4349,0,0,0,0.4305,0.4321,0.4307,0.4317,0.4303,0.4296,0.43,0.4285,0.4284,0.4281,0.4272,0.4272,0.4309,0.431,0.4346,0.4364,0,0,0,0.4314,0.4322,0.4322,0.4318,0.4311,0.4296,0.429,0.4285,0.4279,0.4272,0.4272,0.4309,0.431,0.4345,0.4361,0.4378,0,0,0,0.4329,0.4357,0.4323,0.435,0.4312,0.432,0.429,0.4295,0.4294,0.4272,0.4309,0.431,0.4344,0.4359,0.4377,0.4397,0.4407,0,0,0.4374,0.4363,0.4378,0.4347,0.4366,0.4321,0.4345,0.4327,0.431,0.4311,0.4312,0.4347,0.4361,0.4378,0.4456,0.4464,0,0,0,0.4398,0.4409,0.441,0.441,0.4397,0.4386,0.4363,0.4355,0.4355,0.4315,0.4358,0.4365,0.4375,0.4383,0.439,0.4396,0.4315,0.4315,0.4315,0.4488,0.4464,0.4486,0.446,0.446,0.4434,0.4431,0.4416,0.4393,0.4403,0.4404,0.4454,0.4465,0.447,0.4477,0.4412,0.4412,0.4413,0.4413,0.4552,0.4563,0.4529,0.4539,0.4513,0.452,0.4495,0.4478,0.4479,0.4453,0.446,0.4433,0.448,0.4485,0.4415,0.4415,0.4414,0.4414,0.4414,0.4609,0.461,0.46,0.4595,0.4594,0.4565,0.4567,0.4543,0.4521,0.4527,0.4524,0.4523,0.4519,0.4527,0.4528,0.4528,0.4528,0.4528,0.4528,0.4672,0.4659,0.4665,0.4651,0.4647,0.4637,0.4609,0.4603,0.459,0.4572,0.4572,0.4547,0.4489,0.4475,0.4531,0.453,0.453,0.453,0.453,0.4746,0.4725,0.4734,0.4729,0.4709,0.4708,0.4676,0.4665,0.4657,0.4658,0.463,0.4592,0.4579,0.4573,0.4562,0.4636,0.4636,0.4636,0.4636,0.4794,0.4784,0.4787,0.478,0.477,0.4742,0.475,0.4727,0.4701,0.4693,0.4678,0.466,0.4656,0.4645,0.4638,0.4627,0.4716,0.4716,0.4716,0.4838,0.4826,0.4839,0.4813,0.4794,0.4779,0.4785,0.4777,0.4742,0.4719,0.4686,0.4683,0.4654,0.4645,0.4624,0.4613,0.4592,0,0]}]]